Time,TemperatureF,DewpointF,PressureIn,WindDirection,WindDirectionDegrees,WindSpeedMPH,WindSpeedGustMPH,Humidity,HourlyPrecipIn,Conditions,Clouds,dailyrainin,SoftwareType,DateUTC
2013-05-22 00:01:00,78.1,66.7,29.88,ENE,68,3.1,3.4,68,0.00,,---,0.00,VWS V14.00,2013-05-22 04:01:00,
2013-05-22 00:02:00,78.1,66.2,29.88,SSE,158,2.5,3.1,67,0.00,,---,0.00,VWS V14.00,2013-05-22 04:02:00,
2013-05-22 00:03:00,78.1,66.2,29.88,ENE,68,6.5,7.6,67,0.00,,---,0.00,VWS V14.00,2013-05-22 04:03:00,
2013-05-22 00:05:00,78.1,66.7,29.88,East,90,5.6,6.9,68,0.00,,---,0.00,VWS V14.00,2013-05-22 04:05:00,
2013-05-22 00:09:00,78.1,66.2,29.88,East,90,4.0,4.3,67,0.00,,---,0.00,VWS V14.00,2013-05-22 04:09:00,
2013-05-22 00:14:00,77.9,66.1,29.88,ESE,112,3.4,3.8,67,0.00,,---,0.00,VWS V14.00,2013-05-22 04:14:00,
2013-05-22 00:20:00,77.9,66.9,29.88,East,90,3.6,3.6,69,0.00,,---,0.00,VWS V14.00,2013-05-22 04:20:00,
2013-05-22 00:25:00,77.9,65.6,29.88,East,90,1.6,5.4,66,0.00,,---,0.00,VWS V14.00,2013-05-22 04:25:00,
2013-05-22 00:30:00,77.7,65.5,29.88,ENE,68,5.8,5.8,66,0.00,,---,0.00,VWS V14.00,2013-05-22 04:30:00,
2013-05-22 00:36:00,77.7,65.5,29.85,ESE,112,3.4,4.0,66,0.00,,---,0.00,VWS V14.00,2013-05-22 04:36:00,
2013-05-22 00:41:00,77.7,65.5,29.85,East,90,4.9,4.9,66,0.00,,---,0.00,VWS V14.00,2013-05-22 04:41:00,
2013-05-22 00:46:00,77.7,66.3,29.85,East,90,3.1,5.6,68,0.00,,---,0.00,VWS V14.00,2013-05-22 04:46:00,
2013-05-22 00:51:00,77.5,65.7,29.85,East,90,3.8,6.0,67,0.00,,---,0.00,VWS V14.00,2013-05-22 04:51:00,
2013-05-22 00:57:00,77.5,65.7,29.85,NE,45,6.3,6.3,67,0.00,,---,0.00,VWS V14.00,2013-05-22 04:57:00,
2013-05-22 01:02:00,77.4,65.6,29.85,ESE,112,5.8,5.8,67,0.00,,---,0.00,VWS V14.00,2013-05-22 05:02:00,
2013-05-22 01:08:00,77.4,65.1,29.85,SSE,158,2.5,4.0,66,0.00,,---,0.00,VWS V14.00,2013-05-22 05:08:00,
2013-05-22 01:14:00,77.4,65.6,29.85,ESE,112,1.6,2.9,67,0.00,,---,0.00,VWS V14.00,2013-05-22 05:14:00,
2013-05-22 01:20:00,77.2,64.9,29.85,ESE,112,2.7,2.7,66,0.00,,---,0.00,VWS V14.00,2013-05-22 05:20:00,
2013-05-22 01:25:00,77.2,64.9,29.88,SSE,158,2.7,2.9,66,0.00,,---,0.00,VWS V14.00,2013-05-22 05:25:00,
2013-05-22 01:31:00,77.2,64.9,29.88,East,90,1.6,2.2,66,0.00,,---,0.00,VWS V14.00,2013-05-22 05:31:00,
2013-05-22 01:37:00,77.0,64.3,29.85,ESE,112,1.6,2.5,65,0.00,,---,0.00,VWS V14.00,2013-05-22 05:37:00,
2013-05-22 01:42:00,77.0,64.3,29.85,SE,135,1.1,1.1,65,0.00,,---,0.00,VWS V14.00,2013-05-22 05:42:00,
2013-05-22 01:48:00,77.0,64.3,29.85,East,90,1.3,2.2,65,0.00,,---,0.00,VWS V14.00,2013-05-22 05:48:00,
2013-05-22 01:53:00,77.0,64.3,29.85,SE,135,3.1,3.1,65,0.00,,---,0.00,VWS V14.00,2013-05-22 05:53:00,
2013-05-22 01:58:00,77.0,64.8,29.85,NE,45,2.0,2.0,66,0.00,,---,0.00,VWS V14.00,2013-05-22 05:58:00,
2013-05-22 02:04:00,77.0,64.3,29.85,East,90,5.4,5.4,65,0.00,,---,0.00,VWS V14.00,2013-05-22 06:04:00,
2013-05-22 02:09:00,76.8,64.6,29.85,NE,45,1.6,7.2,66,0.00,,---,0.00,VWS V14.00,2013-05-22 06:09:00,
2013-05-22 02:14:00,76.8,64.6,29.85,East,90,2.9,3.6,66,0.00,,---,0.00,VWS V14.00,2013-05-22 06:14:00,
2013-05-22 02:19:00,76.8,64.6,29.85,East,90,1.3,3.6,66,0.00,,---,0.00,VWS V14.00,2013-05-22 06:19:00,
2013-05-22 02:24:00,76.8,64.6,29.85,ESE,112,2.0,2.0,66,0.00,,---,0.00,VWS V14.00,2013-05-22 06:24:00,
2013-05-22 02:29:00,76.8,64.6,29.85,ESE,112,2.7,2.7,66,0.00,,---,0.00,VWS V14.00,2013-05-22 06:29:00,
2013-05-22 02:34:00,76.8,64.6,29.85,East,90,4.3,4.3,66,0.00,,---,0.00,VWS V14.00,2013-05-22 06:34:00,
2013-05-22 02:39:00,76.6,64.4,29.85,East,90,7.8,7.8,66,0.00,,---,0.00,VWS V14.00,2013-05-22 06:39:00,
2013-05-22 02:44:00,76.6,64.4,29.85,SE,135,4.0,6.0,66,0.00,,---,0.00,VWS V14.00,2013-05-22 06:44:00,
2013-05-22 02:49:00,76.5,64.3,29.85,ESE,112,4.9,4.9,66,0.00,,---,0.00,VWS V14.00,2013-05-22 06:49:00,
2013-05-22 02:54:00,76.5,64.3,29.85,ESE,112,1.1,4.3,66,0.00,,---,0.00,VWS V14.00,2013-05-22 06:54:00,
2013-05-22 02:59:00,76.5,64.7,29.85,East,90,1.1,3.1,67,0.00,,---,0.00,VWS V14.00,2013-05-22 06:59:00,
2013-05-22 03:04:00,76.5,64.3,29.85,SSE,158,3.8,3.8,66,0.00,,---,0.00,VWS V14.00,2013-05-22 07:04:00,
2013-05-22 03:09:00,76.3,64.1,29.82,SE,135,5.6,5.6,66,0.00,,---,0.00,VWS V14.00,2013-05-22 07:09:00,
2013-05-22 03:14:00,76.3,64.5,29.82,ESE,112,1.3,4.0,67,0.00,,---,0.00,VWS V14.00,2013-05-22 07:14:00,
2013-05-22 03:20:00,76.3,64.1,29.82,SE,135,1.1,1.3,66,0.00,,---,0.00,VWS V14.00,2013-05-22 07:20:00,
2013-05-22 03:26:00,76.3,64.9,29.82,East,90,2.9,3.1,68,0.00,,---,0.00,VWS V14.00,2013-05-22 07:26:00,
2013-05-22 03:32:00,76.1,63.9,29.82,East,90,1.6,1.6,66,0.00,,---,0.00,VWS V14.00,2013-05-22 07:32:00,
2013-05-22 03:37:00,76.1,63.9,29.82,SSE,158,1.6,1.6,66,0.00,,---,0.00,VWS V14.00,2013-05-22 07:37:00,
2013-05-22 03:42:00,76.1,63.9,29.82,East,90,2.9,2.9,66,0.00,,---,0.00,VWS V14.00,2013-05-22 07:42:00,
2013-05-22 03:47:00,76.1,63.9,29.82,East,90,2.9,2.9,66,0.00,,---,0.00,VWS V14.00,2013-05-22 07:47:00,
2013-05-22 03:53:00,76.1,64.4,29.82,ESE,112,3.8,3.8,67,0.00,,---,0.00,VWS V14.00,2013-05-22 07:53:00,
2013-05-22 03:58:00,76.1,64.4,29.82,SE,135,3.8,5.8,67,0.00,,---,0.00,VWS V14.00,2013-05-22 07:58:00,
2013-05-22 04:04:00,76.1,64.4,29.82,ESE,112,2.7,2.9,67,0.00,,---,0.00,VWS V14.00,2013-05-22 08:04:00,
2013-05-22 04:09:00,76.1,63.9,29.82,ENE,68,0.9,0.9,66,0.00,,---,0.00,VWS V14.00,2013-05-22 08:09:00,
2013-05-22 04:14:00,76.1,64.4,29.82,ENE,68,1.3,1.6,67,0.00,,---,0.00,VWS V14.00,2013-05-22 08:14:00,
2013-05-22 04:19:00,76.1,64.8,29.82,East,90,3.8,3.8,68,0.00,,---,0.00,VWS V14.00,2013-05-22 08:19:00,
2013-05-22 04:25:00,76.1,64.4,29.82,ESE,112,2.7,4.0,67,0.00,,---,0.00,VWS V14.00,2013-05-22 08:25:00,
2013-05-22 04:30:00,76.1,63.9,29.82,East,90,1.1,2.2,66,0.00,,---,0.00,VWS V14.00,2013-05-22 08:30:00,
2013-05-22 04:36:00,75.9,64.2,29.82,ENE,68,5.4,5.4,67,0.00,,---,0.00,VWS V14.00,2013-05-22 08:36:00,
2013-05-22 04:41:00,75.9,64.2,29.82,ESE,112,2.5,2.7,67,0.00,,---,0.00,VWS V14.00,2013-05-22 08:41:00,
2013-05-22 04:46:00,75.9,64.2,29.82,ENE,68,3.8,3.8,67,0.00,,---,0.00,VWS V14.00,2013-05-22 08:46:00,
2013-05-22 04:51:00,75.9,64.6,29.82,ESE,112,2.9,3.8,68,0.00,,---,0.00,VWS V14.00,2013-05-22 08:51:00,
2013-05-22 04:56:00,75.9,64.6,29.82,East,90,1.1,2.0,68,0.00,,---,0.00,VWS V14.00,2013-05-22 08:56:00,
2013-05-22 05:01:00,75.7,64.0,29.82,East,90,2.9,2.9,67,0.00,,---,0.00,VWS V14.00,2013-05-22 09:01:00,
2013-05-22 05:06:00,75.7,64.4,29.82,ENE,68,1.1,1.6,68,0.00,,---,0.00,VWS V14.00,2013-05-22 09:06:00,
2013-05-22 05:11:00,75.7,64.0,29.82,East,90,0.9,1.1,67,0.00,,---,0.00,VWS V14.00,2013-05-22 09:11:00,
2013-05-22 05:17:00,75.7,64.0,29.82,ESE,112,2.0,2.0,67,0.00,,---,0.00,VWS V14.00,2013-05-22 09:17:00,
2013-05-22 05:22:00,75.7,64.0,29.82,ENE,68,1.6,3.6,67,0.00,,---,0.00,VWS V14.00,2013-05-22 09:22:00,
2013-05-22 05:27:00,75.7,64.0,29.82,East,90,2.2,2.2,67,0.00,,---,0.00,VWS V14.00,2013-05-22 09:27:00,
2013-05-22 05:32:00,75.7,64.4,29.82,SE,135,6.5,6.5,68,0.00,,---,0.00,VWS V14.00,2013-05-22 09:32:00,
2013-05-22 05:37:00,75.7,64.9,29.82,East,90,2.7,3.6,69,0.00,,---,0.00,VWS V14.00,2013-05-22 09:37:00,
2013-05-22 05:43:00,75.6,64.7,29.82,SSE,158,1.3,2.7,69,0.00,,---,0.00,VWS V14.00,2013-05-22 09:43:00,
2013-05-22 05:48:00,75.6,64.3,29.82,SE,135,2.5,2.7,68,0.00,,---,0.00,VWS V14.00,2013-05-22 09:48:00,
2013-05-22 05:53:00,75.6,64.3,29.82,ESE,112,2.7,2.7,68,0.00,,---,0.00,VWS V14.00,2013-05-22 09:53:00,
2013-05-22 05:58:00,75.6,64.3,29.82,ENE,68,2.7,5.4,68,0.00,,---,0.00,VWS V14.00,2013-05-22 09:58:00,
2013-05-22 06:04:00,75.6,64.3,29.82,East,90,1.6,2.9,68,0.00,,---,0.00,VWS V14.00,2013-05-22 10:04:00,
2013-05-22 06:10:00,75.6,64.3,29.82,ESE,112,1.3,1.3,68,0.00,,---,0.00,VWS V14.00,2013-05-22 10:10:00,
2013-05-22 06:15:00,75.6,64.3,29.82,East,90,2.5,2.5,68,0.00,,---,0.00,VWS V14.00,2013-05-22 10:15:00,
2013-05-22 06:20:00,75.6,64.7,29.82,SSE,158,1.1,2.7,69,0.00,,---,0.00,VWS V14.00,2013-05-22 10:20:00,
2013-05-22 06:25:00,75.6,64.3,29.85,South,180,1.6,2.7,68,0.00,,---,0.00,VWS V14.00,2013-05-22 10:25:00,
2013-05-22 06:30:00,75.6,64.7,29.85,ESE,112,4.9,4.9,69,0.00,,---,0.00,VWS V14.00,2013-05-22 10:30:00,
2013-05-22 06:35:00,75.7,66.9,29.85,East,90,2.0,4.3,74,0.00,,---,0.00,VWS V14.00,2013-05-22 10:35:00,
2013-05-22 06:41:00,75.7,66.1,29.85,SE,135,4.3,4.3,72,0.00,,---,0.00,VWS V14.00,2013-05-22 10:41:00,
2013-05-22 06:46:00,75.9,66.7,29.85,ENE,68,5.4,5.4,73,0.00,,---,0.00,VWS V14.00,2013-05-22 10:46:00,
2013-05-22 06:51:00,75.9,66.7,29.85,SE,135,3.1,4.0,73,0.00,,---,0.00,VWS V14.00,2013-05-22 10:51:00,
2013-05-22 06:56:00,75.9,66.7,29.85,ESE,112,3.8,4.3,73,0.00,,---,0.00,VWS V14.00,2013-05-22 10:56:00,
2013-05-22 07:01:00,76.1,67.2,29.85,SE,135,1.1,3.8,74,0.00,,---,0.00,VWS V14.00,2013-05-22 11:01:00,
2013-05-22 07:06:00,76.1,66.8,29.85,SE,135,2.5,4.9,73,0.00,,---,0.00,VWS V14.00,2013-05-22 11:06:00,
2013-05-22 07:11:00,76.3,66.6,29.85,ESE,112,2.9,2.9,72,0.00,,---,0.00,VWS V14.00,2013-05-22 11:11:00,
2013-05-22 07:17:00,76.3,66.6,29.85,SSE,158,4.3,6.5,72,0.00,,---,0.00,VWS V14.00,2013-05-22 11:17:00,
2013-05-22 07:23:00,76.5,67.2,29.85,SSE,158,1.6,2.2,73,0.00,,---,0.00,VWS V14.00,2013-05-22 11:23:00,
2013-05-22 07:28:00,76.6,67.3,29.85,East,90,4.7,4.7,73,0.00,,---,0.00,VWS V14.00,2013-05-22 11:28:00,
2013-05-22 07:34:00,76.6,67.7,29.85,SE,135,2.9,6.3,74,0.00,,---,0.00,VWS V14.00,2013-05-22 11:34:00,
2013-05-22 07:39:00,76.8,69.1,29.85,SSE,158,5.4,5.4,77,0.00,,---,0.00,VWS V14.00,2013-05-22 11:39:00,
2013-05-22 07:44:00,77.0,69.2,29.85,South,180,3.8,5.4,77,0.00,,---,0.00,VWS V14.00,2013-05-22 11:44:00,
2013-05-22 07:49:00,77.0,68.9,29.85,SSE,158,3.4,3.4,76,0.00,,---,0.00,VWS V14.00,2013-05-22 11:49:00,
2013-05-22 07:54:00,77.2,69.4,29.85,ESE,112,4.9,6.3,77,0.00,,---,0.00,VWS V14.00,2013-05-22 11:54:00,
2013-05-22 07:59:00,77.2,69.4,29.85,South,180,2.9,3.6,77,0.00,,---,0.00,VWS V14.00,2013-05-22 11:59:00,
2013-05-22 08:05:00,77.2,69.0,29.85,SSE,158,2.9,2.9,76,0.00,,---,0.00,VWS V14.00,2013-05-22 12:05:00,
2013-05-22 08:10:00,77.4,69.6,29.85,SSE,158,3.8,3.8,77,0.00,,---,0.00,VWS V14.00,2013-05-22 12:10:00,
2013-05-22 08:16:00,77.5,69.0,29.85,SSW,202,2.7,4.0,75,0.00,,---,0.00,VWS V14.00,2013-05-22 12:16:00,
2013-05-22 08:21:00,77.9,69.7,29.85,SE,135,2.0,2.0,76,0.00,,---,0.00,VWS V14.00,2013-05-22 12:21:00,
2013-05-22 08:27:00,78.1,69.5,29.85,SSW,202,2.0,4.0,75,0.00,,---,0.00,VWS V14.00,2013-05-22 12:27:00,
2013-05-22 08:32:00,78.1,69.1,29.85,SE,135,3.4,4.3,74,0.00,,---,0.00,VWS V14.00,2013-05-22 12:32:00,
2013-05-22 08:38:00,78.1,69.1,29.88,SSW,202,2.5,4.0,74,0.00,,---,0.00,VWS V14.00,2013-05-22 12:38:00,
2013-05-22 08:43:00,78.1,69.1,29.88,SSW,202,1.1,2.7,74,0.00,,---,0.00,VWS V14.00,2013-05-22 12:43:00,
2013-05-22 08:49:00,78.3,68.9,29.88,SE,135,2.9,2.9,73,0.00,,---,0.00,VWS V14.00,2013-05-22 12:49:00,
2013-05-22 08:55:00,78.4,69.5,29.88,SSE,158,2.9,3.6,74,0.00,,---,0.00,VWS V14.00,2013-05-22 12:55:00,
2013-05-22 09:00:00,78.4,69.1,29.88,SE,135,2.7,4.3,73,0.00,,---,0.00,VWS V14.00,2013-05-22 13:00:00,
2013-05-22 09:05:00,78.4,69.1,29.88,SSE,158,1.1,2.7,73,0.00,,---,0.00,VWS V14.00,2013-05-22 13:05:00,
2013-05-22 09:10:00,78.6,69.2,29.88,SSE,158,4.3,4.3,73,0.00,,---,0.00,VWS V14.00,2013-05-22 13:10:00,
2013-05-22 09:16:00,78.8,69.0,29.88,SSW,202,2.5,2.5,72,0.00,,---,0.00,VWS V14.00,2013-05-22 13:16:00,
2013-05-22 09:21:00,78.8,69.0,29.88,SW,225,3.1,3.4,72,0.00,,---,0.00,VWS V14.00,2013-05-22 13:21:00,
2013-05-22 09:26:00,78.8,68.6,29.88,SSW,202,2.7,2.7,71,0.00,,---,0.00,VWS V14.00,2013-05-22 13:26:00,
2013-05-22 09:31:00,79.0,68.8,29.88,South,180,3.6,3.6,71,0.00,,---,0.00,VWS V14.00,2013-05-22 13:31:00,
2013-05-22 09:37:00,79.2,68.5,29.88,ESE,112,3.6,3.6,70,0.00,,---,0.00,VWS V14.00,2013-05-22 13:37:00,
2013-05-22 09:42:00,79.2,68.5,29.88,East,90,0.0,1.1,70,0.00,,---,0.00,VWS V14.00,2013-05-22 13:42:00,
2013-05-22 09:47:00,79.3,69.1,29.88,South,180,3.8,4.5,71,0.00,,---,0.00,VWS V14.00,2013-05-22 13:47:00,
2013-05-22 09:52:00,79.5,69.3,29.88,SSW,202,1.6,3.1,71,0.00,,---,0.00,VWS V14.00,2013-05-22 13:52:00,
2013-05-22 09:58:00,79.7,69.1,29.88,SSW,202,2.7,2.7,70,0.00,,---,0.00,VWS V14.00,2013-05-22 13:58:00,
2013-05-22 10:04:00,79.9,69.2,29.88,SSW,202,2.5,2.5,70,0.00,,---,0.00,VWS V14.00,2013-05-22 14:04:00,
2013-05-22 10:09:00,80.1,69.0,29.88,SW,225,2.5,2.5,69,0.00,,---,0.00,VWS V14.00,2013-05-22 14:09:00,
2013-05-22 10:15:00,80.2,69.6,29.88,SW,225,5.4,5.4,70,0.00,,---,0.00,VWS V14.00,2013-05-22 14:15:00,
2013-05-22 10:20:00,80.2,69.2,29.88,SSW,202,4.3,4.3,69,0.00,,---,0.00,VWS V14.00,2013-05-22 14:20:00,
2013-05-22 10:25:00,80.4,69.3,29.88,SSW,202,5.6,5.6,69,0.00,,---,0.00,VWS V14.00,2013-05-22 14:25:00,
2013-05-22 10:30:00,80.4,68.9,29.88,SW,225,4.3,6.0,68,0.00,,---,0.00,VWS V14.00,2013-05-22 14:30:00,
2013-05-22 10:36:00,80.4,68.9,29.88,West,270,3.6,3.6,68,0.00,,---,0.00,VWS V14.00,2013-05-22 14:36:00,
2013-05-22 10:41:00,80.4,68.9,29.91,WSW,248,4.3,4.3,68,0.00,,---,0.00,VWS V14.00,2013-05-22 14:41:00,
2013-05-22 10:46:00,80.6,68.6,29.91,South,180,2.7,2.7,67,0.00,,---,0.00,VWS V14.00,2013-05-22 14:46:00,
2013-05-22 10:51:00,80.6,68.6,29.91,WSW,248,5.4,5.4,67,0.00,,---,0.00,VWS V14.00,2013-05-22 14:51:00,
2013-05-22 10:56:00,80.8,68.4,29.91,WNW,292,3.1,3.1,66,0.00,,---,0.00,VWS V14.00,2013-05-22 14:56:00,
2013-05-22 11:01:00,81.0,68.5,29.91,WSW,248,3.4,5.4,66,0.00,,---,0.00,VWS V14.00,2013-05-22 15:01:00,
2013-05-22 11:06:00,81.0,68.1,29.91,SW,225,3.4,4.3,65,0.00,,---,0.00,VWS V14.00,2013-05-22 15:06:00,
2013-05-22 11:11:00,81.1,68.3,29.91,SW,225,2.9,3.4,65,0.00,,---,0.00,VWS V14.00,2013-05-22 15:11:00,
2013-05-22 11:16:00,81.3,68.9,29.91,West,270,4.0,4.0,66,0.00,,---,0.00,VWS V14.00,2013-05-22 15:16:00,
2013-05-22 11:21:00,81.5,68.2,29.91,SW,225,3.6,4.9,64,0.00,,---,0.00,VWS V14.00,2013-05-22 15:21:00,
2013-05-22 11:26:00,81.5,68.6,29.91,South,180,3.4,3.8,65,0.00,,---,0.00,VWS V14.00,2013-05-22 15:26:00,
2013-05-22 11:32:00,81.7,68.8,29.91,WNW,292,3.8,3.8,65,0.00,,---,0.00,VWS V14.00,2013-05-22 15:32:00,
2013-05-22 11:37:00,81.9,68.5,29.91,SW,225,3.6,6.3,64,0.00,,---,0.00,VWS V14.00,2013-05-22 15:37:00,
2013-05-22 11:42:00,81.9,68.0,29.91,West,270,3.4,3.4,63,0.00,,---,0.00,VWS V14.00,2013-05-22 15:42:00,
2013-05-22 11:47:00,81.9,68.0,29.91,SW,225,4.3,5.4,63,0.00,,---,0.00,VWS V14.00,2013-05-22 15:47:00,
2013-05-22 11:53:00,82.0,68.2,29.91,SW,225,6.3,6.3,63,0.00,,---,0.00,VWS V14.00,2013-05-22 15:53:00,
2013-05-22 11:58:00,81.9,68.0,29.91,SW,225,3.8,3.8,63,0.00,,---,0.00,VWS V14.00,2013-05-22 15:58:00,
2013-05-22 12:04:00,82.0,68.2,29.91,SW,225,3.1,5.6,63,0.00,,---,0.00,VWS V14.00,2013-05-22 16:04:00,
2013-05-22 12:09:00,82.0,68.2,29.91,SW,225,4.3,4.3,63,0.00,,---,0.00,VWS V14.00,2013-05-22 16:09:00,
2013-05-22 12:14:00,82.4,68.6,29.91,SW,225,2.0,3.4,63,0.00,,---,0.00,VWS V14.00,2013-05-22 16:14:00,
2013-05-22 12:19:00,82.6,68.2,29.91,WSW,248,2.7,3.6,62,0.00,,---,0.00,VWS V14.00,2013-05-22 16:19:00,
2013-05-22 12:24:00,82.8,67.9,29.91,West,270,6.5,6.5,61,0.00,,---,0.00,VWS V14.00,2013-05-22 16:24:00,
2013-05-22 12:29:00,83.1,68.3,29.91,WSW,248,5.8,5.8,61,0.00,,---,0.00,VWS V14.00,2013-05-22 16:29:00,
2013-05-22 12:34:00,83.1,67.8,29.91,West,270,4.9,4.9,60,0.00,,---,0.00,VWS V14.00,2013-05-22 16:34:00,
2013-05-22 12:39:00,83.1,68.3,29.91,WSW,248,3.1,4.9,61,0.00,,---,0.00,VWS V14.00,2013-05-22 16:39:00,
2013-05-22 12:44:00,83.3,67.5,29.91,SW,225,5.8,5.8,59,0.00,,---,0.00,VWS V14.00,2013-05-22 16:44:00,
2013-05-22 12:49:00,83.5,67.7,29.91,WSW,248,5.4,5.4,59,0.00,,---,0.00,VWS V14.00,2013-05-22 16:49:00,
2013-05-22 12:54:00,83.7,68.3,29.91,West,270,2.9,5.8,60,0.00,,---,0.00,VWS V14.00,2013-05-22 16:54:00,
2013-05-22 12:59:00,83.7,67.8,29.91,SSW,202,4.9,5.8,59,0.00,,---,0.00,VWS V14.00,2013-05-22 16:59:00,
2013-05-22 13:04:00,83.7,68.3,29.91,WNW,292,5.4,5.4,60,0.00,,---,0.00,VWS V14.00,2013-05-22 17:04:00,
2013-05-22 13:10:00,84.2,67.8,29.88,SW,225,5.6,7.6,58,0.00,,---,0.00,VWS V14.00,2013-05-22 17:10:00,
2013-05-22 13:15:00,84.2,67.3,29.88,West,270,9.0,9.0,57,0.00,,---,0.00,VWS V14.00,2013-05-22 17:15:00,
2013-05-22 13:20:00,84.4,68.0,29.88,WSW,248,3.1,6.0,58,0.00,,---,0.00,VWS V14.00,2013-05-22 17:20:00,
2013-05-22 13:25:00,84.6,67.7,29.88,NNW,338,8.1,8.1,57,0.00,,---,0.00,VWS V14.00,2013-05-22 17:25:00,
2013-05-22 13:31:00,84.7,68.3,29.88,SW,225,4.7,5.8,58,0.00,,---,0.00,VWS V14.00,2013-05-22 17:31:00,
2013-05-22 13:37:00,85.1,68.2,29.88,SW,225,5.8,5.8,57,0.00,,---,0.00,VWS V14.00,2013-05-22 17:37:00,
2013-05-22 13:42:00,85.3,67.8,29.88,WNW,292,6.5,8.1,56,0.00,,---,0.00,VWS V14.00,2013-05-22 17:42:00,
2013-05-22 13:47:00,85.3,67.8,29.88,West,270,3.6,4.9,56,0.00,,---,0.00,VWS V14.00,2013-05-22 17:47:00,
2013-05-22 13:52:00,85.5,68.0,29.88,NW,315,3.8,5.6,56,0.00,,---,0.00,VWS V14.00,2013-05-22 17:52:00,
2013-05-22 13:57:00,85.6,68.2,29.88,NW,315,5.8,7.4,56,0.00,,---,0.00,VWS V14.00,2013-05-22 17:57:00,
2013-05-22 14:02:00,85.8,68.8,29.88,WNW,292,4.3,4.3,57,0.00,,---,0.00,VWS V14.00,2013-05-22 18:02:00,
2013-05-22 14:07:00,86.2,68.1,29.88,West,270,6.0,7.4,55,0.00,,---,0.00,VWS V14.00,2013-05-22 18:07:00,
2013-05-22 14:12:00,86.7,68.1,29.88,WNW,292,5.4,5.4,54,0.00,,---,0.00,VWS V14.00,2013-05-22 18:12:00,
2013-05-22 14:17:00,87.1,68.4,29.88,NW,315,3.4,3.4,54,0.00,,---,0.00,VWS V14.00,2013-05-22 18:17:00,
2013-05-22 14:23:00,87.1,67.3,29.88,SW,225,6.3,6.3,52,0.00,,---,0.00,VWS V14.00,2013-05-22 18:23:00,
2013-05-22 14:28:00,87.4,67.7,29.88,West,270,6.0,8.5,52,0.00,,---,0.00,VWS V14.00,2013-05-22 18:28:00,
2013-05-22 14:33:00,87.6,67.8,29.88,WNW,292,4.0,7.8,52,0.00,,---,0.00,VWS V14.00,2013-05-22 18:33:00,
2013-05-22 14:38:00,88.0,67.0,29.88,WSW,248,4.9,4.9,50,0.00,,---,0.00,VWS V14.00,2013-05-22 18:38:00,
2013-05-22 14:44:00,88.2,67.2,29.88,West,270,5.6,5.6,50,0.00,,---,0.00,VWS V14.00,2013-05-22 18:44:00,
2013-05-22 14:49:00,88.5,68.7,29.88,NW,315,5.8,6.3,52,0.00,,---,0.00,VWS V14.00,2013-05-22 18:49:00,
2013-05-22 14:54:00,88.7,66.5,29.85,NW,315,7.6,7.6,48,0.00,,---,0.00,VWS V14.00,2013-05-22 18:54:00,
2013-05-22 14:59:00,88.7,67.1,29.85,NW,315,10.5,10.5,49,0.00,,---,0.00,VWS V14.00,2013-05-22 18:59:00,
2013-05-22 15:05:00,88.9,66.7,29.85,WNW,292,9.2,9.2,48,0.00,,---,0.00,VWS V14.00,2013-05-22 19:05:00,
2013-05-22 15:10:00,89.1,67.4,29.85,WNW,292,6.3,6.3,49,0.00,,---,0.00,VWS V14.00,2013-05-22 19:10:00,
2013-05-22 15:16:00,89.1,66.2,29.85,WNW,292,7.8,7.8,47,0.00,,---,0.00,VWS V14.00,2013-05-22 19:16:00,
2013-05-22 15:21:00,89.2,67.0,29.85,WNW,292,4.9,6.5,48,0.00,,---,0.00,VWS V14.00,2013-05-22 19:21:00,
2013-05-22 15:26:00,89.8,66.9,29.85,WNW,292,2.9,5.4,47,0.00,,---,0.00,VWS V14.00,2013-05-22 19:26:00,
2013-05-22 15:31:00,90.0,67.0,29.85,WSW,248,7.4,7.4,47,0.00,,---,0.00,VWS V14.00,2013-05-22 19:31:00,
2013-05-22 15:36:00,90.0,66.4,29.85,West,270,4.3,7.4,46,0.00,,---,0.00,VWS V14.00,2013-05-22 19:36:00,
2013-05-22 15:41:00,90.3,66.8,29.85,NW,315,5.4,5.6,46,0.00,,---,0.00,VWS V14.00,2013-05-22 19:41:00,
2013-05-22 15:47:00,89.8,66.9,29.85,WNW,292,10.1,10.1,47,0.00,,---,0.00,VWS V14.00,2013-05-22 19:47:00,
2013-05-22 15:52:00,89.6,66.1,29.85,WSW,248,10.5,10.5,46,0.00,,---,0.00,VWS V14.00,2013-05-22 19:52:00,
2013-05-22 15:57:00,89.4,66.6,29.85,WNW,292,10.3,10.3,47,0.00,,---,0.00,VWS V14.00,2013-05-22 19:57:00,
2013-05-22 16:02:00,89.2,67.0,29.85,WNW,292,10.1,10.1,48,0.00,,---,0.00,VWS V14.00,2013-05-22 20:02:00,
2013-05-22 16:07:00,89.6,67.9,29.82,WNW,292,3.8,4.3,49,0.00,,---,0.00,VWS V14.00,2013-05-22 20:07:00,
2013-05-22 16:12:00,89.4,67.2,29.82,WSW,248,6.0,10.1,48,0.00,,---,0.00,VWS V14.00,2013-05-22 20:12:00,
2013-05-22 16:17:00,89.8,66.3,29.82,WNW,292,9.8,9.8,46,0.00,,---,0.00,VWS V14.00,2013-05-22 20:17:00,
2013-05-22 16:22:00,89.6,66.7,29.82,West,270,7.6,7.6,47,0.00,,---,0.00,VWS V14.00,2013-05-22 20:22:00,
2013-05-22 16:28:00,89.2,65.8,29.82,WNW,292,8.7,8.7,46,0.00,,---,0.00,VWS V14.00,2013-05-22 20:28:00,
2013-05-22 16:33:00,89.4,65.9,29.82,NW,315,8.7,8.7,46,0.00,,---,0.00,VWS V14.00,2013-05-22 20:33:00,
2013-05-22 16:39:00,89.2,66.4,29.82,WNW,292,6.3,6.5,47,0.00,,---,0.00,VWS V14.00,2013-05-22 20:39:00,
2013-05-22 16:44:00,89.2,67.0,29.82,NNW,338,4.3,5.4,48,0.00,,---,0.00,VWS V14.00,2013-05-22 20:44:00,
2013-05-22 16:49:00,89.2,66.4,29.82,WNW,292,3.4,6.5,47,0.00,,---,0.00,VWS V14.00,2013-05-22 20:49:00,
2013-05-22 16:54:00,89.2,66.4,29.82,SW,225,8.1,8.1,47,0.00,,---,0.00,VWS V14.00,2013-05-22 20:54:00,
2013-05-22 16:59:00,89.1,66.2,29.82,NNE,22,9.8,9.8,47,0.00,,---,0.00,VWS V14.00,2013-05-22 20:59:00,
2013-05-22 17:04:00,88.9,65.4,29.82,NW,315,4.9,7.6,46,0.00,,---,0.00,VWS V14.00,2013-05-22 21:04:00,
2013-05-22 17:09:00,88.9,66.1,29.82,WNW,292,10.1,10.1,47,0.00,,---,0.00,VWS V14.00,2013-05-22 21:09:00,
2013-05-22 17:15:00,88.7,65.3,29.82,West,270,4.9,4.9,46,0.00,,---,0.00,VWS V14.00,2013-05-22 21:15:00,
2013-05-22 17:20:00,88.7,65.9,29.82,WNW,292,13.2,13.2,47,0.00,,---,0.00,VWS V14.00,2013-05-22 21:20:00,
2013-05-22 17:25:00,88.7,65.9,29.82,WNW,292,7.2,7.2,47,0.00,,---,0.00,VWS V14.00,2013-05-22 21:25:00,
2013-05-22 17:30:00,88.3,66.2,29.82,NNW,338,7.8,7.8,48,0.00,,---,0.00,VWS V14.00,2013-05-22 21:30:00,
2013-05-22 17:35:00,87.8,65.1,29.82,NNE,22,5.8,10.5,47,0.00,,---,0.00,VWS V14.00,2013-05-22 21:35:00,
2013-05-22 17:40:00,88.2,66.6,29.82,NW,315,4.0,5.6,49,0.00,,---,0.00,VWS V14.00,2013-05-22 21:40:00,
2013-05-22 17:45:00,88.0,66.4,29.82,NW,315,10.1,10.1,49,0.00,,---,0.00,VWS V14.00,2013-05-22 21:45:00,
2013-05-22 17:51:00,87.8,66.3,29.82,WNW,292,8.1,8.1,49,0.00,,---,0.00,VWS V14.00,2013-05-22 21:51:00,
2013-05-22 17:56:00,88.0,65.8,29.82,WNW,292,7.8,8.7,48,0.00,,---,0.00,VWS V14.00,2013-05-22 21:56:00,
2013-05-22 18:02:00,88.2,66.0,29.82,NW,315,3.1,8.5,48,0.00,,---,0.00,VWS V14.00,2013-05-22 22:02:00,
2013-05-22 18:07:00,88.3,65.6,29.82,WNW,292,5.6,5.6,47,0.00,,---,0.00,VWS V14.00,2013-05-22 22:07:00,
2013-05-22 18:12:00,88.3,66.2,29.82,SW,225,5.4,5.8,48,0.00,,---,0.00,VWS V14.00,2013-05-22 22:12:00,
2013-05-22 18:17:00,88.0,66.4,29.82,West,270,7.4,8.7,49,0.00,,---,0.00,VWS V14.00,2013-05-22 22:17:00,
2013-05-22 18:22:00,87.6,66.7,29.82,WSW,248,6.5,7.6,50,0.00,,---,0.00,VWS V14.00,2013-05-22 22:22:00,
2013-05-22 18:27:00,87.3,65.8,29.82,WNW,292,4.3,4.3,49,0.00,,---,0.00,VWS V14.00,2013-05-22 22:27:00,
2013-05-22 18:32:00,86.9,66.0,29.82,WNW,292,4.9,4.9,50,0.00,,---,0.00,VWS V14.00,2013-05-22 22:32:00,
2013-05-22 18:38:00,86.7,65.9,29.82,NW,315,5.4,7.6,50,0.00,,---,0.00,VWS V14.00,2013-05-22 22:38:00,
2013-05-22 18:44:00,85.8,66.2,29.82,NW,315,9.6,9.6,52,0.00,,---,0.00,VWS V14.00,2013-05-22 22:44:00,
2013-05-22 18:49:00,85.5,66.4,29.82,WNW,292,5.6,5.6,53,0.00,,---,0.00,VWS V14.00,2013-05-22 22:49:00,
2013-05-22 18:55:00,85.1,66.6,29.82,NW,315,8.1,8.1,54,0.00,,---,0.00,VWS V14.00,2013-05-22 22:55:00,
2013-05-22 19:00:00,84.7,66.3,29.82,WNW,292,5.8,6.5,54,0.00,,---,0.00,VWS V14.00,2013-05-22 23:00:00,
2013-05-22 19:05:00,84.7,66.3,29.82,NNW,338,4.9,4.9,54,0.00,,---,0.00,VWS V14.00,2013-05-22 23:05:00,
2013-05-22 19:11:00,84.7,66.3,29.82,NNW,338,3.6,4.0,54,0.00,,---,0.00,VWS V14.00,2013-05-22 23:11:00,
2013-05-22 19:17:00,84.6,66.1,29.82,North,0,2.9,2.9,54,0.00,,---,0.00,VWS V14.00,2013-05-22 23:17:00,
2013-05-22 19:22:00,84.4,65.9,29.82,WNW,292,3.6,4.3,54,0.00,,---,0.00,VWS V14.00,2013-05-22 23:22:00,
2013-05-22 19:27:00,84.2,65.8,29.82,WNW,292,5.8,5.8,54,0.00,,---,0.00,VWS V14.00,2013-05-22 23:27:00,
2013-05-22 19:32:00,84.0,66.1,29.82,NNE,22,2.2,5.8,55,0.00,,---,0.00,VWS V14.00,2013-05-22 23:32:00,
2013-05-22 19:37:00,83.8,66.0,29.82,NNW,338,4.3,4.3,55,0.00,,---,0.00,VWS V14.00,2013-05-22 23:37:00,
2013-05-22 19:42:00,83.8,66.5,29.82,WNW,292,2.5,2.7,56,0.00,,---,0.00,VWS V14.00,2013-05-22 23:42:00,
2013-05-22 19:48:00,83.5,66.2,29.82,West,270,4.3,4.3,56,0.00,,---,0.00,VWS V14.00,2013-05-22 23:48:00,
2013-05-22 19:53:00,83.3,66.0,29.82,WNW,292,3.8,3.8,56,0.00,,---,0.00,VWS V14.00,2013-05-22 23:53:00,
2013-05-22 19:58:00,83.1,65.8,29.82,WNW,292,3.4,3.4,56,0.00,,---,0.00,VWS V14.00,2013-05-22 23:58:00,
2013-05-22 20:04:00,82.8,66.0,29.82,NW,315,4.9,4.9,57,0.00,,---,0.00,VWS V14.00,2013-05-23 00:04:00,
2013-05-22 20:09:00,82.6,65.8,29.85,NNW,338,2.7,4.0,57,0.00,,---,0.00,VWS V14.00,2013-05-23 00:09:00,
2013-05-22 20:14:00,82.2,66.5,29.85,North,0,3.8,4.9,59,0.00,,---,0.00,VWS V14.00,2013-05-23 00:14:00,
2013-05-22 20:20:00,82.0,66.3,29.85,WNW,292,3.1,3.4,59,0.00,,---,0.00,VWS V14.00,2013-05-23 00:20:00,
2013-05-22 20:25:00,81.9,66.6,29.85,NNW,338,3.4,4.3,60,0.00,,---,0.00,VWS V14.00,2013-05-23 00:25:00,
2013-05-22 20:30:00,81.7,66.9,29.85,NNW,338,2.9,2.9,61,0.00,,---,0.00,VWS V14.00,2013-05-23 00:30:00,
2013-05-22 20:35:00,81.5,66.8,29.85,North,0,3.1,3.1,61,0.00,,---,0.00,VWS V14.00,2013-05-23 00:35:00,
2013-05-22 20:41:00,81.3,66.6,29.85,NW,315,3.6,5.4,61,0.00,,---,0.00,VWS V14.00,2013-05-23 00:41:00,
2013-05-22 20:46:00,81.1,66.4,29.85,WNW,292,2.7,2.7,61,0.00,,---,0.00,VWS V14.00,2013-05-23 00:46:00,
2013-05-22 20:51:00,81.1,66.9,29.85,NNW,338,3.1,3.1,62,0.00,,---,0.00,VWS V14.00,2013-05-23 00:51:00,
2013-05-22 20:56:00,81.0,66.7,29.85,North,0,4.0,4.3,62,0.00,,---,0.00,VWS V14.00,2013-05-23 00:56:00,
2013-05-22 21:01:00,80.8,66.6,29.85,NNE,22,1.6,2.5,62,0.00,,---,0.00,VWS V14.00,2013-05-23 01:01:00,
2013-05-22 21:06:00,80.8,66.6,29.85,NNW,338,1.6,3.1,62,0.00,,---,0.00,VWS V14.00,2013-05-23 01:06:00,
2013-05-22 21:11:00,80.8,66.6,29.85,North,0,3.4,3.4,62,0.00,,---,0.00,VWS V14.00,2013-05-23 01:11:00,
2013-05-22 21:16:00,80.8,67.0,29.85,North,0,2.5,3.4,63,0.00,,---,0.00,VWS V14.00,2013-05-23 01:16:00,
2013-05-22 21:21:00,80.6,66.8,29.85,NNE,22,2.7,2.7,63,0.00,,---,0.00,VWS V14.00,2013-05-23 01:21:00,
2013-05-22 21:26:00,80.6,66.8,29.85,NNE,22,2.7,2.7,63,0.00,,---,0.00,VWS V14.00,2013-05-23 01:26:00,
2013-05-22 21:31:00,80.6,66.8,29.85,North,0,0.9,1.3,63,0.00,,---,0.00,VWS V14.00,2013-05-23 01:31:00,
2013-05-22 21:37:00,80.4,67.1,29.85,North,0,1.6,2.9,64,0.00,,---,0.00,VWS V14.00,2013-05-23 01:37:00,
2013-05-22 21:42:00,80.4,67.1,29.85,NNE,22,1.3,1.6,64,0.00,,---,0.00,VWS V14.00,2013-05-23 01:42:00,
2013-05-22 21:47:00,80.4,67.1,29.85,NNW,338,3.1,3.1,64,0.00,,---,0.00,VWS V14.00,2013-05-23 01:47:00,
2013-05-22 21:52:00,80.4,67.1,29.85,NW,315,2.9,2.9,64,0.00,,---,0.00,VWS V14.00,2013-05-23 01:52:00,
2013-05-22 21:58:00,80.2,66.5,29.85,NNW,338,1.3,1.3,63,0.00,,---,0.00,VWS V14.00,2013-05-23 01:58:00,
2013-05-22 22:04:00,80.2,67.0,29.85,WNW,292,0.9,1.6,64,0.00,,---,0.00,VWS V14.00,2013-05-23 02:04:00,
2013-05-22 22:09:00,80.2,66.5,29.85,WNW,292,3.6,3.6,63,0.00,,---,0.00,VWS V14.00,2013-05-23 02:09:00,
2013-05-22 22:15:00,80.1,66.8,29.85,WNW,292,2.7,3.1,64,0.00,,---,0.00,VWS V14.00,2013-05-23 02:15:00,
2013-05-22 22:20:00,80.1,66.8,29.85,WNW,292,3.4,3.4,64,0.00,,---,0.00,VWS V14.00,2013-05-23 02:20:00,
2013-05-22 22:26:00,80.1,66.8,29.85,NW,315,3.4,3.4,64,0.00,,---,0.00,VWS V14.00,2013-05-23 02:26:00,
2013-05-22 22:31:00,79.9,66.6,29.85,WNW,292,3.1,3.1,64,0.00,,---,0.00,VWS V14.00,2013-05-23 02:31:00,
2013-05-22 22:36:00,79.9,66.6,29.88,WNW,292,4.9,4.9,64,0.00,,---,0.00,VWS V14.00,2013-05-23 02:36:00,
2013-05-22 22:41:00,79.9,67.1,29.88,WNW,292,2.5,2.5,65,0.00,,---,0.00,VWS V14.00,2013-05-23 02:41:00,
2013-05-22 22:47:00,79.7,66.9,29.88,NNW,338,1.6,2.5,65,0.00,,---,0.00,VWS V14.00,2013-05-23 02:47:00,
2013-05-22 22:52:00,79.7,66.9,29.85,NNW,338,3.4,3.4,65,0.00,,---,0.00,VWS V14.00,2013-05-23 02:52:00,
2013-05-22 22:58:00,79.7,67.3,29.85,NNW,338,2.2,2.2,66,0.00,,---,0.00,VWS V14.00,2013-05-23 02:58:00,
2013-05-22 23:04:00,79.7,67.3,29.85,NNW,338,3.1,3.1,66,0.00,,---,0.00,VWS V14.00,2013-05-23 03:04:00,
2013-05-22 23:09:00,79.7,67.3,29.88,NNW,338,0.0,1.3,66,0.00,,---,0.00,VWS V14.00,2013-05-23 03:09:00,
2013-05-22 23:15:00,79.7,67.8,29.88,North,0,1.6,3.1,67,0.00,,---,0.00,VWS V14.00,2013-05-23 03:15:00,
2013-05-22 23:20:00,79.7,66.9,29.88,NNE,22,1.6,2.2,65,0.00,,---,0.00,VWS V14.00,2013-05-23 03:20:00,
2013-05-22 23:25:00,79.7,67.3,29.88,NE,45,0.0,0.9,66,0.00,,---,0.00,VWS V14.00,2013-05-23 03:25:00,
2013-05-22 23:31:00,79.7,66.9,29.88,NNE,22,1.3,1.6,65,0.00,,---,0.00,VWS V14.00,2013-05-23 03:31:00,
2013-05-22 23:36:00,79.7,66.9,29.85,ENE,68,1.6,1.6,65,0.00,,---,0.00,VWS V14.00,2013-05-23 03:36:00,
2013-05-22 23:41:00,79.5,66.3,29.85,East,90,1.6,1.6,64,0.00,,---,0.00,VWS V14.00,2013-05-23 03:41:00,
2013-05-22 23:46:00,79.5,66.3,29.85,East,90,2.7,2.9,64,0.00,,---,0.00,VWS V14.00,2013-05-23 03:46:00,
2013-05-22 23:51:00,79.5,66.3,29.85,ESE,112,1.6,1.6,64,0.00,,---,0.00,VWS V14.00,2013-05-23 03:51:00,
2013-05-22 23:56:00,79.5,66.7,29.85,East,90,1.1,1.6,65,0.00,,---,0.00,VWS V14.00,2013-05-23 03:56:00,